Weather History for Gunnison, CO

Change the Weather History Date:

Friday, December 7, 2012

  Actual Average Record
Temperature  
Mean Temperature 33 °F -  
Max Temperature 42 °F 27 °F 44 °F (2008)
Min Temperature 24 °F 3 °F -5 °F (2005)
Degree Days  
Heating Degree Days 32    
Moisture  
Dew Point 22 °F    
Average Humidity 66    
Maximum Humidity 93    
Minimum Humidity 36    
Precipitation  
Precipitation 0.00 in - - ()
Sea Level Pressure  
Sea Level Pressure 29.98 in    
Wind  
Wind Speed 5 mph (WNW)    
Max Wind Speed 20 mph    
Max Gust Speed 25 mph    
Visibility 10 miles    
Events      
Averages and records for this station are not official NWS values.
T = Trace of Precipitation, MM = Missing Value Source: NWS Daily Summary

Daily Weather History Graph

Daily Weather History Graph

Search for Another Location

Airport:

Trip Planner

Search our weather history database for the weather conditions in past years. The results will help you decide how hot, cold, wet, or windy it might be!

Date:

Astronomy

Dec. 07, 2012 Rise Set
Actual Time 7:12 AM MST 4:46 PM MST
Civil Twilight 6:42 AM MST 5:16 PM MST
Nautical Twilight 6:09 AM MST 5:49 PM MST
Astronomical Twilight 5:37 AM MST 6:21 PM MST
Moon 12:38 AM MST (12/7) 12:41 PM MST (12/7)
Length of Visible Light 10h 33m
Length of Day
9h 34m
Last Quarter, 38% of the Moon is Illuminated
Dec 7
Last Quarter
Dec 13
New
Dec 19
First Quarter
Dec 28
Full
Jan 4
Last Quarter

Hourly Weather History & Observations

Time (MST) Temp. Windchill Dew Point Humidity Pressure Visibility Wind Dir Wind Speed Gust Speed Precip Events Conditions
12:15 AM 32.0 °F 26.4 °F 28.4 °F 87% 30.00 in 10.0 mi North 5.8 mph - N/A   Scattered Clouds
12:35 AM 30.2 °F 26.7 °F 26.6 °F 86% 30.00 in 10.0 mi North 3.5 mph - N/A   Scattered Clouds
12:55 AM 30.2 °F - 26.6 °F 86% 30.00 in 10.0 mi Calm Calm - N/A   Mostly Cloudy
1:15 AM 30.2 °F - 26.6 °F 86% 30.00 in 10.0 mi Calm Calm - N/A   Partly Cloudy
1:35 AM 28.4 °F - 26.6 °F 93% 30.00 in 10.0 mi Calm Calm - N/A   Mostly Cloudy
1:55 AM 30.2 °F - 26.6 °F 86% 30.00 in 10.0 mi Calm Calm - N/A   Overcast
2:15 AM 28.4 °F - 24.8 °F 86% 30.01 in 10.0 mi Calm Calm - N/A   Overcast
2:35 AM 28.4 °F 24.6 °F 24.8 °F 86% 30.00 in 10.0 mi NNE 3.5 mph - N/A   Overcast
2:55 AM 28.4 °F - 24.8 °F 86% 30.01 in 10.0 mi Calm Calm - N/A   Mostly Cloudy
3:15 AM 28.4 °F 24.6 °F 24.8 °F 86% 30.00 in 10.0 mi NE 3.5 mph - N/A   Overcast
3:35 AM 28.4 °F - 24.8 °F 86% 29.99 in 10.0 mi Calm Calm - N/A   Overcast
3:55 AM 28.4 °F - 24.8 °F 86% 29.99 in 10.0 mi Calm Calm - N/A   Overcast
4:15 AM 28.4 °F 24.6 °F 24.8 °F 86% 29.99 in 10.0 mi North 3.5 mph - N/A   Overcast
4:35 AM 28.4 °F - 24.8 °F 86% 29.98 in 10.0 mi Calm Calm - N/A   Overcast
4:55 AM 28.4 °F - 24.8 °F 86% 29.98 in 10.0 mi Calm Calm - N/A   Mostly Cloudy
5:15 AM 28.4 °F - 24.8 °F 86% 29.97 in 10.0 mi Calm Calm - N/A   Partly Cloudy
5:35 AM 26.6 °F - 23.0 °F 86% 29.97 in 10.0 mi Calm Calm - N/A   Mostly Cloudy
5:55 AM 26.6 °F - 23.0 °F 86% 29.97 in 10.0 mi Calm Calm - N/A   Overcast
6:15 AM 26.6 °F 22.6 °F 24.8 °F 93% 29.97 in 10.0 mi North 3.5 mph - N/A   Mostly Cloudy
6:35 AM 28.4 °F - 24.8 °F 86% 29.98 in 10.0 mi Calm Calm - N/A   Mostly Cloudy
6:55 AM 28.4 °F 23.3 °F 24.8 °F 86% 29.99 in 10.0 mi North 4.6 mph - N/A   Overcast
7:15 AM 28.4 °F - 23.0 °F 80% 29.98 in 10.0 mi Calm Calm - N/A   Mostly Cloudy
7:35 AM 26.6 °F - 24.8 °F 93% 29.99 in 10.0 mi Calm Calm - N/A   Clear
7:55 AM 28.4 °F - 24.8 °F 86% 29.99 in 10.0 mi Calm Calm - N/A   Partly Cloudy
8:15 AM 28.4 °F 23.3 °F 26.6 °F 93% 30.00 in 10.0 mi SW 4.6 mph - N/A   Partly Cloudy
8:35 AM 28.4 °F - 24.8 °F 86% 30.00 in 10.0 mi Calm Calm - N/A   Clear
8:55 AM 30.2 °F 25.4 °F 26.6 °F 86% 30.01 in 10.0 mi ENE 4.6 mph - N/A   Clear
9:15 AM 33.8 °F - 26.6 °F 75% 30.01 in 10.0 mi Calm Calm - N/A   Clear
9:35 AM 35.6 °F - 28.4 °F 75% 30.01 in 10.0 mi Calm Calm - N/A   Scattered Clouds
9:55 AM 37.4 °F 34.9 °F 28.4 °F 70% 30.01 in 10.0 mi West 3.5 mph - N/A   Mostly Cloudy
10:15 AM 39.2 °F 35.9 °F 28.4 °F 65% 30.01 in 10.0 mi East 4.6 mph - N/A   Partly Cloudy
10:35 AM 41.0 °F 38.0 °F 28.4 °F 61% 30.01 in 10.0 mi NNW 4.6 mph - N/A   Mostly Cloudy
10:55 AM 41.0 °F 36.4 °F 24.8 °F 53% 30.00 in 10.0 mi North 6.9 mph - N/A   Overcast
11:15 AM 42.8 °F 35.8 °F 24.8 °F 49% 29.99 in 10.0 mi SW 13.8 mph 17.3 mph N/A   Overcast
11:35 AM 42.8 °F 35.1 °F 21.2 °F 42% 29.98 in 10.0 mi West 16.1 mph 19.6 mph N/A   Mostly Cloudy
11:55 AM 42.8 °F 34.8 °F 19.4 °F 39% 29.98 in 10.0 mi WSW 17.3 mph 24.2 mph N/A   Overcast
12:15 PM 42.8 °F 34.8 °F 21.2 °F 42% 29.98 in 10.0 mi SW 17.3 mph 25.3 mph N/A   Mostly Cloudy
12:35 PM 42.8 °F 34.5 °F 19.4 °F 39% 29.98 in 10.0 mi SW 18.4 mph 25.3 mph N/A   Scattered Clouds
12:55 PM 42.8 °F 34.5 °F 19.4 °F 39% 29.97 in 10.0 mi SW 18.4 mph 24.2 mph N/A   Mostly Cloudy
1:15 PM 42.8 °F 35.1 °F 19.4 °F 39% 29.96 in 10.0 mi SW 16.1 mph 21.9 mph N/A   Partly Cloudy
1:35 PM 42.8 °F 36.2 °F 19.4 °F 39% 29.96 in 10.0 mi WSW 12.7 mph 23.0 mph N/A   Clear
1:55 PM 42.8 °F 35.8 °F 19.4 °F 39% 29.96 in 10.0 mi WSW 13.8 mph 21.9 mph N/A   Clear
2:15 PM 42.8 °F 35.8 °F 19.4 °F 39% 29.96 in 10.0 mi West 13.8 mph 21.9 mph N/A   Clear
2:35 PM 42.8 °F 36.2 °F 17.6 °F 36% 29.96 in 10.0 mi West 12.7 mph 19.6 mph N/A   Clear
2:55 PM 42.8 °F 36.2 °F 17.6 °F 36% 29.96 in 10.0 mi West 12.7 mph 18.4 mph N/A   Partly Cloudy
3:15 PM 42.8 °F 36.2 °F 19.4 °F 39% 29.96 in 10.0 mi WSW 12.7 mph 20.7 mph N/A   Partly Cloudy
3:35 PM 42.8 °F 34.3 °F 17.6 °F 36% 29.96 in 10.0 mi WSW 19.6 mph 23.0 mph N/A   Clear
3:55 PM 41.0 °F 32.8 °F 17.6 °F 39% 29.96 in 10.0 mi WSW 16.1 mph 20.7 mph N/A   Clear
4:15 PM 39.2 °F 31.6 °F 17.6 °F 42% 29.97 in 10.0 mi WSW 12.7 mph - N/A   Clear
4:35 PM 39.2 °F 31.6 °F 17.6 °F 42% 29.97 in 10.0 mi West 12.7 mph - N/A   Clear
4:55 PM 39.2 °F 33.0 °F 17.6 °F 42% 29.97 in 10.0 mi West 9.2 mph - N/A   Clear
5:15 PM 39.2 °F 32.0 °F 17.6 °F 42% 29.97 in 10.0 mi West 11.5 mph - N/A   Clear
5:35 PM 37.4 °F 29.8 °F 17.6 °F 45% 29.97 in 10.0 mi WNW 11.5 mph - N/A   Clear
5:55 PM 37.4 °F 30.8 °F 17.6 °F 45% 29.98 in 10.0 mi West 9.2 mph 16.1 mph N/A   Clear
6:15 PM 35.6 °F 30.7 °F 17.6 °F 48% 29.98 in 10.0 mi SSE 5.8 mph - N/A   Clear
6:35 PM 32.0 °F 26.4 °F 17.6 °F 55% 29.99 in 10.0 mi SSE 5.8 mph - N/A   Clear
6:55 PM 32.0 °F 25.6 °F 19.4 °F 60% 29.99 in 10.0 mi SSE 6.9 mph - N/A   Clear
7:15 PM 30.2 °F 23.4 °F 19.4 °F 64% 29.99 in 10.0 mi SSE 6.9 mph - N/A   Clear
7:35 PM 30.2 °F - 19.4 °F 64% 29.99 in 10.0 mi Calm Calm - N/A   Scattered Clouds
7:55 PM 30.2 °F - 19.4 °F 64% 29.99 in 10.0 mi Calm Calm - N/A   Partly Cloudy
8:15 PM 30.2 °F - 19.4 °F 64% 29.99 in 10.0 mi Calm Calm - N/A   Mostly Cloudy
8:55 PM 28.4 °F 23.3 °F 17.6 °F 64% 30.00 in 10.0 mi North 4.6 mph - N/A   Mostly Cloudy
9:35 PM 28.4 °F 23.3 °F 17.6 °F 64% 29.99 in 10.0 mi NNE 4.6 mph - N/A   Partly Cloudy
9:55 PM 26.6 °F 22.6 °F 17.6 °F 69% 29.99 in 10.0 mi North 3.5 mph - N/A   Partly Cloudy
10:15 PM 26.6 °F 20.0 °F 15.8 °F 64% 29.98 in 10.0 mi North 5.8 mph - N/A   Clear
10:35 PM 26.6 °F 20.0 °F 15.8 °F 64% 29.98 in 10.0 mi North 5.8 mph - N/A   Clear
10:55 PM 26.6 °F 22.6 °F 17.6 °F 69% 29.98 in 10.0 mi NE 3.5 mph - N/A   Clear
11:15 PM 26.6 °F 21.2 °F 17.6 °F 69% 29.98 in 10.0 mi North 4.6 mph - N/A   Clear
11:35 PM 24.8 °F 20.5 °F 15.8 °F 69% 29.98 in 10.0 mi North 3.5 mph - N/A   Mostly Cloudy
11:55 PM 24.8 °F - 15.8 °F 69% 29.98 in 10.0 mi Calm Calm - N/A   Scattered Clouds